| time (UTC) | temp F | wind direction | speed MPH | gust MPH | rain 1hr in | rain 24hr in | rain mn in | humidity % | barometer mb |
| 20260906184540 | 94 | 253 | 2.0 | 7.0 | 0.00 | 0.00 | 0.00 | 58 | 1011.4 |
| 20260906183034 | 94 | 276 | 2.0 | 7.0 | 0.00 | 0.00 | 0.00 | 58 | 1011.6 |
| 20260906181538 | 93 | 286 | 2.0 | 5.0 | 0.00 | 0.00 | 0.00 | 62 | 1011.7 |
| 20260906180041 | 93 | 273 | 2.0 | 7.0 | 0.00 | 0.00 | 0.00 | 61 | 1011.8 |
| 20260906174535 | 92 | 219 | 2.0 | 8.0 | 0.00 | 0.00 | 0.00 | 62 | 1011.8 |
| 20260906173040 | 92 | 288 | 3.0 | 9.0 | 0.00 | 0.00 | 0.00 | 62 | 1012.0 |
| 20260906171536 | 91 | 196 | 2.0 | 6.0 | 0.00 | 0.00 | 0.00 | 64 | 1012.2 |
| 20260906170106 | 90 | 308 | 2.0 | 7.0 | 0.00 | 0.00 | 0.00 | 66 | 1012.2 |
| 20260906164541 | 91 | 210 | 4.0 | 10.0 | 0.00 | 0.00 | 0.00 | 67 | 1012.5 |
| 20260906163038 | 90 | 219 | 3.0 | 10.0 | 0.00 | 0.00 | 0.00 | 66 | 1012.6 |
| 20260906161537 | 90 | 206 | 2.0 | 8.0 | 0.00 | 0.00 | 0.00 | 67 | 1012.9 |
| 20260906160038 | 89 | 236 | 3.0 | 9.0 | 0.00 | 0.00 | 0.00 | 70 | 1013.0 |
| 20260906154541 | 89 | 177 | 3.0 | 8.0 | 0.00 | 0.00 | 0.00 | 69 | 1013.2 |
| 20260906153040 | 88 | 240 | 3.0 | 11.0 | 0.00 | 0.00 | 0.00 | 71 | 1013.3 |
| 20260906151540 | 87 | 263 | 2.0 | 8.0 | 0.00 | 0.00 | 0.00 | 73 | 1013.4 |
| 20260906150041 | 86 | 308 | 3.0 | 11.0 | 0.00 | 0.00 | 0.00 | 74 | 1013.3 |
| 20260906144541 | 86 | 343 | 3.0 | 9.0 | 0.00 | 0.00 | 0.00 | 75 | 1013.3 |
| 20260906143045 | 86 | 253 | 2.0 | 7.0 | 0.00 | 0.00 | 0.00 | 76 | 1013.4 |
| 20260906141538 | 85 | 301 | 5.0 | 10.0 | 0.00 | 0.00 | 0.00 | 78 | 1013.4 |
| 20260906140044 | 84 | 337 | 2.0 | 8.0 | 0.00 | 0.00 | 0.00 | 81 | 1013.1 |
| 20260906134550 | 83 | 273 | 2.0 | 6.0 | 0.00 | 0.00 | 0.00 | 85 | 1013.1 |
| 20260906133040 | 81 | 309 | 2.0 | 4.0 | 0.00 | 0.00 | 0.00 | 87 | 1013.2 |
| 20260906131538 | 80 | 219 | 2.0 | 5.0 | 0.00 | 0.00 | 0.00 | 89 | 1013.4 |
| 20260906130044 | 78 | 251 | 3.0 | 5.0 | 0.00 | 0.00 | 0.00 | 90 | 1013.7 |
| 20260906124544 | 77 | 261 | 1.0 | 2.0 | 0.00 | 0.00 | 0.00 | 90 | 1013.6 |
| 20260906123111 | 77 | 279 | 1.0 | 3.0 | 0.00 | 0.00 | 0.00 | 90 | 1013.7 |
| 20260906121541 | 76 | 252 | 0.0 | 2.0 | 0.00 | 0.00 | 0.00 | 90 | 1013.6 |
| 20260906120040 | 76 | 202 | 0.0 | 2.0 | 0.00 | 0.00 | 0.00 | 90 | 1013.3 |
| 20260906114539 | 75 | 0 | 0.0 | 3.0 | 0.00 | 0.00 | 0.00 | 90 | 1013.2 |
| 20260906113041 | 75 | 0 | 0.0 | 1.0 | 0.00 | 0.00 | 0.00 | 90 | 1013.2 |
| 20260906111538 | 75 | 0 | 0.0 | 2.0 | 0.00 | 0.00 | 0.00 | 90 | 1013.0 |
| 20260906110036 | 75 | 0 | 0.0 | 0.0 | 0.00 | 0.00 | 0.00 | 90 | 1012.8 |
| 20260906104538 | 75 | 207 | 0.0 | 2.0 | 0.00 | 0.00 | 0.00 | 90 | 1012.6 |
| 20260906103036 | 75 | 0 | 0.0 | 2.0 | 0.00 | 0.00 | 0.00 | 89 | 1012.3 |
| 20260906101537 | 75 | 0 | 0.0 | 0.0 | 0.00 | 0.00 | 0.00 | 89 | 1012.2 |
| 20260906100039 | 75 | 0 | 0.0 | 2.0 | 0.00 | 0.00 | 0.00 | 89 | 1011.8 |
| 20260906094536 | 75 | 0 | 0.0 | 2.0 | 0.00 | 0.00 | 0.00 | 89 | 1011.6 |
| 20260906093040 | 75 | 0 | 0.0 | 2.0 | 0.00 | 0.00 | 0.00 | 89 | 1011.8 |
| 20260906091554 | 75 | 0 | 0.0 | 0.0 | 0.00 | 0.00 | 0.00 | 89 | 1011.7 |
| 20260906090035 | 75 | 0 | 0.0 | 0.0 | 0.00 | 0.00 | 0.00 | 89 | 1011.7 |
| 20260906084536 | 75 | 0 | 0.0 | 2.0 | 0.00 | 0.00 | 0.00 | 89 | 1011.8 |
| 20260906083037 | 75 | 0 | 0.0 | 2.0 | 0.00 | 0.00 | 0.00 | 89 | 1011.6 |
| 20260906081541 | 75 | 0 | 0.0 | 2.0 | 0.00 | 0.00 | 0.00 | 89 | 1011.4 |
| 20260906080043 | 75 | 211 | 1.0 | 3.0 | 0.00 | 0.00 | 0.00 | 88 | 1011.3 |
| 20260906074546 | 75 | 144 | 1.0 | 7.0 | 0.00 | 0.00 | 0.00 | 88 | 1011.3 |
| 20260906073039 | 75 | 181 | 2.0 | 5.0 | 0.00 | 0.00 | 0.00 | 88 | 1011.2 |
| 20260906071534 | 75 | 167 | 2.0 | 5.0 | 0.00 | 0.00 | 0.00 | 88 | 1011.5 |
| 20260906070035 | 76 | 0 | 0.0 | 3.0 | 0.00 | 0.00 | 0.00 | 88 | 1011.7 |
| 20260906064537 | 76 | 200 | 0.0 | 3.0 | 0.00 | 0.00 | 0.00 | 88 | 1011.9 |
| 20260906063039 | 76 | 221 | 1.0 | 2.0 | 0.00 | 0.00 | 0.00 | 88 | 1012.0 |
| 20260906061538 | 76 | 0 | 0.0 | 3.0 | 0.00 | 0.00 | 0.00 | 87 | 1012.5 |
| 20260906060036 | 76 | 0 | 0.0 | 2.0 | 0.00 | 0.00 | 0.00 | 87 | 1012.5 |
| 20260906054541 | 76 | 190 | 1.0 | 3.0 | 0.00 | 0.00 | 0.00 | 87 | 1012.7 |
| 20260906053036 | 76 | 0 | 0.0 | 2.0 | 0.00 | 0.00 | 0.00 | 87 | 1012.8 |
| 20260906051538 | 76 | 0 | 0.0 | 2.0 | 0.00 | 0.00 | 0.00 | 87 | 1013.1 |
| 20260906050049 | 76 | 0 | 0.0 | 2.0 | 0.00 | 0.00 | 0.00 | 87 | 1013.2 |
| 20260906044538 | 76 | 287 | 1.0 | 5.0 | 0.00 | 0.00 | 0.00 | 87 | 1013.2 |
| 20260906043037 | 76 | 0 | 0.0 | 0.0 | 0.00 | 0.00 | 0.00 | 86 | 1013.1 |
| 20260906041537 | 76 | 0 | 0.0 | 2.0 | 0.00 | 0.00 | 0.00 | 86 | 1013.3 |
| 20260906040042 | 76 | 0 | 1.0 | 2.0 | 0.00 | 0.00 | 0.00 | 86 | 1013.2 |
| 20260906034536 | 76 | 0 | 0.0 | 4.0 | 0.00 | 0.01 | 0.00 | 86 | 1013.2 |
| 20260906033046 | 76 | 182 | 1.0 | 5.0 | 0.00 | 0.01 | 0.00 | 86 | 1013.3 |
| 20260906031537 | 76 | 209 | 3.0 | 7.0 | 0.00 | 0.01 | 0.00 | 86 | 1013.4 |
| 20260906030044 | 76 | 213 | 2.0 | 6.0 | 0.00 | 0.01 | 0.00 | 85 | 1013.6 |
| 20260906024545 | 76 | 181 | 2.0 | 5.0 | 0.00 | 0.18 | 0.00 | 85 | 1013.4 |
| 20260906023048 | 76 | 169 | 1.0 | 7.0 | 0.00 | 0.18 | 0.00 | 85 | 1013.5 |
| 20260906021536 | 76 | 154 | 1.0 | 5.0 | 0.00 | 0.18 | 0.00 | 85 | 1013.5 |
| 20260906020051 | 76 | 171 | 2.0 | 6.0 | 0.00 | 0.18 | 0.00 | 85 | 1013.5 |
| 20260906014540 | 76 | 179 | 2.0 | 4.0 | 0.00 | 0.18 | 0.00 | 84 | 1013.4 |
| 20260906013049 | 76 | 0 | 0.0 | 2.0 | 0.00 | 0.18 | 0.00 | 84 | 1013.5 |
| 20260906011556 | 76 | 165 | 0.0 | 5.0 | 0.00 | 0.18 | 0.00 | 84 | 1013.2 |
| 20260906010042 | 77 | 181 | 2.0 | 5.0 | 0.00 | 0.18 | 0.00 | 83 | 1013.0 |
| 20260906004539 | 77 | 216 | 1.0 | 9.0 | 0.00 | 0.21 | 0.00 | 83 | 1013.0 |
| 20260906003039 | 78 | 216 | 2.0 | 7.0 | 0.00 | 0.21 | 0.00 | 83 | 1012.9 |
| 20260906001537 | 78 | 224 | 3.0 | 5.0 | 0.00 | 0.21 | 0.00 | 82 | 1012.9 |
| 20260906000050 | 79 | 0 | 0.0 | 2.0 | 0.00 | 0.21 | 0.00 | 82 | 1012.6 |
| 20260905234538 | 79 | 107 | 0.0 | 2.0 | 0.00 | 0.23 | 0.00 | 81 | 1012.7 |
| 20260905233041 | 79 | 0 | 0.0 | 2.0 | 0.00 | 0.23 | 0.00 | 81 | 1012.9 |
| 20260905231538 | 79 | 0 | 0.0 | 2.0 | 0.00 | 0.23 | 0.00 | 79 | 1012.9 |
| 20260905230040 | 79 | 0 | 0.0 | 3.0 | 0.00 | 0.23 | 0.00 | 79 | 1012.9 |
| 20260905224548 | 80 | 88 | 0.0 | 4.0 | 0.00 | 0.24 | 0.00 | 79 | 1013.1 |
| 20260905223038 | 81 | 94 | 1.0 | 7.0 | 0.00 | 0.24 | 0.00 | 77 | 1013.3 |
| 20260905221537 | 82 | 0 | 0.0 | 3.0 | 0.00 | 0.24 | 0.00 | 77 | 1013.4 |
| 20260905220040 | 83 | 99 | 0.0 | 4.0 | 0.00 | 0.24 | 0.00 | 76 | 1013.0 |
| 20260905214537 | 84 | 36 | 1.0 | 6.0 | 0.00 | 0.24 | 0.00 | 74 | 1012.7 |
| 20260905213037 | 85 | 44 | 2.0 | 6.0 | 0.00 | 0.24 | 0.00 | 74 | 1013.3 |
| 20260905211541 | 86 | 15 | 1.0 | 8.0 | 0.00 | 0.24 | 0.00 | 74 | 1012.5 |
| 20260905210036 | 86 | 9 | 4.0 | 9.0 | 0.00 | 0.24 | 0.00 | 72 | 1012.9 |
| 20260905204543 | 88 | 5 | 1.0 | 14.0 | 0.00 | 0.24 | 0.00 | 70 | 1012.5 |
| 20260905203040 | 94 | 9 | 2.0 | 7.0 | 0.00 | 0.24 | 0.00 | 61 | 1012.7 |
| 20260905201536 | 94 | 182 | 1.0 | 6.0 | 0.00 | 0.24 | 0.00 | 57 | 1012.3 |
| 20260905200041 | 95 | 308 | 0.0 | 6.0 | 0.00 | 0.24 | 0.00 | 58 | 1012.3 |
| 20260905194539 | 96 | 241 | 2.0 | 7.0 | 0.00 | 0.24 | 0.00 | 56 | 1012.4 |
| 20260905193035 | 95 | 197 | 2.0 | 6.0 | 0.00 | 0.24 | 0.00 | 58 | 1012.5 |
| 20260905191537 | 94 | 273 | 1.0 | 5.0 | 0.00 | 0.24 | 0.00 | 61 | 1012.5 |
| 20260905190035 | 94 | 21 | 2.0 | 9.0 | 0.00 | 0.24 | 0.00 | 59 | 1012.7 |